[[{"header":{"parameterUnit":"m.s-1","parameterCategory":1,"la1":30.2991,"la2":30.254,"lo1":-89.0895,"lo2":-89.0444,"dy":0.0017,"dx":0.0017,"nx":28,"ny":28,"refTime":"2024-12-06T09:00:00:Z","depth":0,"parameterNumber":2,"parameterNumberName":"U-component_of_WINDS"},"data":[0,0,0,0,0,0,0,0,0,0,0,0,0,0,0,0,0,0,0,0,0,0,0,0,0,0,0,0,0,0,0,0,0,0,0,0,0,0,0,0,0,0,0,0,0,0,0,0,0,0,0,0,0,0,0,0,0,0,-2.8174,-2.8174,0,-2.8222,-2.8222,-2.8223,-2.8122,-2.8119,-2.8116,-2.8113,-2.8163,-2.8167,-2.8171,0,0,0,0,0,0,0,0,0,0,0,0,0,-2.7994,-2.7998,-2.8174,-2.8174,-2.8175,-2.8222,-2.8222,-2.8223,-2.8123,-2.8119,-2.8115,-2.8111,-2.8161,-2.8166,-2.8172,0,0,0,0,0,0,0,0,0,0,0,0,0,-2.806,-2.7999,-2.8174,-2.8131,-2.8127,-2.8222,-2.8222,-2.8223,-2.8124,-2.8119,-2.8114,-2.811,-2.8159,-2.8166,-2.8172,-2.8311,0,0,-2.8192,-2.8195,0,0,0,0,0,0,0,0,-2.8057,-2.8067,-2.8136,-2.8134,-2.813,-2.8161,-2.8177,-2.8253,-2.8125,-2.8125,-2.8113,-2.8107,-2.8166,-2.8172,-2.8192,-2.8313,-2.8315,-2.8193,-2.8197,-2.82,-2.8202,0,0,0,0,0,0,0,-2.8052,-2.8064,-2.8193,-2.8137,-2.8134,-2.8109,-2.8113,-2.8191,-2.8173,-2.8125,-2.8118,-2.8125,-2.8163,-2.8186,-2.8192,-2.8316,-2.8193,-2.8199,-2.8203,-2.8205,-2.8552,-2.8558,0,0,0,0,0,0,-2.8053,-2.8061,-2.8191,-2.8194,-2.808,-2.8116,-2.812,-2.8156,-2.8171,-2.8169,-2.8129,-2.812,-2.8177,-2.8184,-2.8193,-2.8357,-2.82,-2.8206,-2.821,-2.8547,-2.8554,-2.8559,0,0,0,0,0,0,-2.8049,-2.8066,-2.8189,-2.8126,-2.8139,-2.8124,-2.8165,-2.816,-2.8182,-2.8174,-2.8171,-2.8155,-2.8173,-2.8184,-2.8282,-2.8357,-2.8209,-2.8215,-2.8541,-2.8549,-2.8557,-2.8684,0,0,0,0,0,0,-2.8045,-2.8065,-2.8118,-2.8128,-2.8143,-2.8278,-2.817,-2.8164,-2.8193,-2.8182,-2.8198,-2.8196,-2.817,-2.8273,-2.8289,-2.8363,-2.822,-2.8534,-2.8545,-2.8554,-2.8673,-2.8696,-2.8715,0,0,0,0,0,-2.8039,-2.8152,-2.8121,-2.8137,-2.8209,-2.8283,-2.8291,-2.826,-2.82,-2.8253,-2.8247,-2.8195,-2.8346,-2.8284,-2.8301,-2.8378,-2.8529,-2.8542,-2.8553,-2.8664,-2.8691,-2.8714,0,0,0,0,0,0,-2.8152,-2.8153,-2.8118,-2.8238,-2.8261,-2.8265,-2.8331,-2.8289,-2.833,-2.8318,-2.8276,-2.8281,-2.8387,-2.8392,-2.8323,-2.8513,-2.8427,-2.8443,-2.8506,-2.8532,-2.8552,-2.8549,-2.8225,0,0,0,0,0,-2.8191,-2.8251,-2.8248,-2.8354,-2.8367,-2.8347,-2.8378,-2.8351,-2.8373,-2.8383,-2.8385,-2.8408,-2.846,-2.8496,-2.8544,-2.8673,-2.8675,-2.8734,-2.8755,-2.8772,-2.8787,-2.8855,-2.8881,-2.8599,-2.8598,-2.8598,0,0,-2.8272,-2.828,-2.832,-2.8377,-2.8391,-2.8454,-2.8356,-2.8427,-2.8473,-2.8393,-2.8486,-2.8488,-2.8511,-2.8626,-2.8676,-2.8633,-2.8865,-2.8787,-2.8801,-2.8806,-2.887,-2.8897,-2.8921,-2.8607,-2.8605,-2.8604,0,0,-2.8452,-2.8464,-2.8554,-2.857,-2.8593,-2.8579,-2.86,-2.8611,-2.8609,-2.8701,-2.8643,-2.8696,-2.8787,-2.8806,-2.8828,-2.9013,-2.8967,-2.903,-2.9138,-2.9205,-2.9228,-2.9247,-2.9314,-2.9338,-2.9044,-2.9044,-2.9044,0,-2.8551,-2.8643,-2.8605,-2.868,-2.8706,-2.8636,-2.8726,-2.8744,-2.8781,-2.8801,-2.8752,-2.8864,-2.8875,-2.8992,-2.9038,-2.9057,-2.908,-2.9029,-2.9227,-2.9247,-2.9264,-2.9327,-2.9353,-2.9052,-2.9051,-2.905,-2.9049,0,-2.8762,-2.8827,-2.8896,-2.8934,-2.8968,-2.9051,-2.9025,-2.9064,-2.9033,-2.9024,-2.9119,-2.9128,-2.9177,-2.9202,-2.9173,-2.9316,-2.9288,-2.9234,-2.9148,-2.93,-2.9358,-2.9382,-2.9063,-2.906,-2.9058,-2.9056,0,0,-2.9018,-2.9032,-2.9059,-2.9074,-2.9094,-2.9143,-2.9221,-2.9268,-2.9302,-2.933,-2.9395,-2.9472,-2.9422,-2.9446,-2.9419,-2.9478,-2.9624,-2.9416,-2.9416,-2.9455,-2.9781,-2.9823,-2.9851,-2.9592,-2.9597,-2.96,-2.9779,0,-2.9197,-2.9332,-2.9299,-2.9433,-2.9492,-2.9425,-2.9493,-2.9512,-2.9505,-2.9554,-2.9546,-2.9602,-2.9531,-2.9545,-2.96,-2.9595,-2.9689,-2.9581,-2.9652,-2.9655,-2.965,-2.9882,-2.9926,-3.0095,-2.9802,-2.9806,-2.9809,0,-2.9424,-2.946,-2.96,-2.9609,-2.9632,-2.9694,-2.9734,-2.9781,-2.9801,-2.9792,-2.9819,-2.9779,-2.9855,-2.9767,-2.9872,-2.98,-2.9826,-2.9828,-2.9833,-2.984,-2.9743,-2.9896,-3.0148,-3.0174,-2.9844,-2.9841,-2.9839,0,-2.9597,-2.9681,-2.9775,-2.979,-2.9803,-2.9848,-2.9855,-2.987,-2.99,-2.9934,-2.9953,-2.9996,-3.002,-3.0054,-3.0027,-2.9965,-3.0136,-3.0046,-3.0131,-3.0132,-3.0172,-3.017,-3.0433,-3.0187,-3.0187,-3.0186,-3.0186,0,-2.9802,-2.989,-2.9853,-2.9911,-3.0008,-2.9968,-3.0065,-3.0064,-3.0078,-3.0134,-3.0078,-3.0132,-3.0092,-3.0143,-3.0122,-3.0212,-3.0223,-3.0218,-3.0211,-3.0224,-3.0225,-3.0242,-3.023,-3.0193,-3.0192,-3.019,-3.0189,0,-3.0013,-2.9991,-3.0089,-3.0093,-3.0095,-3.0166,-3.0169,-3.0222,-3.021,-3.0283,-3.0297,-3.0279,-3.0335,-3.0311,-3.037,-3.0356,-3.0472,-3.0449,-3.0466,-3.046,-3.0547,-3.054,-3.0832,-3.0868,-3.0598,-3.0601,-3.0603,0,-3.0145,-3.0211,-3.0221,-3.0255,-3.0266,-3.0321,-3.0351,-3.0315,-3.0348,-3.0375,-3.0425,-3.0476,-3.0516,-3.0609,-3.0601,-3.0646,-3.0624,-3.0723,-3.0631,-3.0641,-3.0627,-3.0624,-3.063,-3.0743,-3.0746,-3.0749,-3.0751,0,-3.0383,-3.0369,-3.0414,-3.0456,-3.0493,-3.0525,-3.0551,-3.0582,-3.0546,-3.0586,-3.0643,-3.0673,-3.0733,-3.0785,-3.0825,-3.0831,-3.0786,-3.0779,-3.0802,-3.0816,-3.0823,-3.0821,-3.0518,-3.0773,-3.0771,-3.0769,-3.0768,-3.0767,-3.0559,-3.0615,-3.063,-3.0683,-3.0698,-3.0724,-3.0774,-3.0768,-3.0815,-3.0861,-3.0836,-3.0903,-3.0919,-3.0967,-3.0979,-3.103,-3.0991,-3.1024,-3.1032,-3.1041,-3.1053,-3.0814,-3.1037,-3.1037,-3.1036,-3.1035,-3.1035,0,-3.0795,-3.0801,-3.0849,-3.0888,-3.0929,-3.0881,-3.0907,-3.0945,-3.1004,-3.1023,-3.1062,-3.1127,-3.1177,-3.1172,-3.1217,-3.1259,-3.1239,-3.1272,-3.1269,-3.1271,-3.1085,-3.1061,-3.1287,-3.1287,-3.1287,-3.1287,-3.1287,-3.1287,-3.0922,-3.1014,-3.1001,-3.11,-3.1105,-3.117,-3.1189,-3.1212,-3.1226,-3.1302,-3.1342,-3.1338,-3.1348,-3.1393,-3.1436,-3.1433,-3.1452,-3.1494,-3.1483,-3.1309,-3.1285,-3.1261,-3.1239,-3.1498,-3.1498,-3.1666,-3.1667,-3.1668]},{"header":{"parameterUnit":"m.s-1","parameterCategory":1,"la1":30.2991,"la2":30.254,"lo1":-89.0895,"lo2":-89.0444,"dy":0.0017,"dx":0.0017,"nx":28,"ny":28,"refTime":"2024-12-06T09:00:00:Z","depth":0,"parameterNumber":3,"parameterNumberName":"V-component_of_WINDS"},"data":[0,0,0,0,0,0,0,0,0,0,0,0,0,0,0,0,0,0,0,0,0,0,0,0,0,0,0,0,0,0,0,0,0,0,0,0,0,0,0,0,0,0,0,0,0,0,0,0,0,0,0,0,0,0,0,0,0,0,-5.5256,-5.5257,0,-5.5319,-5.532,-5.532,-5.5225,-5.5222,-5.5219,-5.5216,-5.5276,-5.528,-5.5285,0,0,0,0,0,0,0,0,0,0,0,0,0,-5.5048,-5.5053,-5.5256,-5.5257,-5.5258,-5.5319,-5.532,-5.5321,-5.5226,-5.5222,-5.5218,-5.5214,-5.5274,-5.528,-5.5285,0,0,0,0,0,0,0,0,0,0,0,0,0,-5.5128,-5.5054,-5.5256,-5.5218,-5.5215,-5.5319,-5.532,-5.5321,-5.5227,-5.5222,-5.5217,-5.5212,-5.5272,-5.5279,-5.5286,-5.5428,0,0,-5.5307,-5.531,0,0,0,0,0,0,0,0,-5.5123,-5.5135,-5.5223,-5.5221,-5.5218,-5.5259,-5.5268,-5.5357,-5.5228,-5.5222,-5.5216,-5.521,-5.5274,-5.528,-5.5303,-5.5431,-5.5434,-5.5308,-5.5312,-5.5315,-5.5317,0,0,0,0,0,0,0,-5.5118,-5.5132,-5.5281,-5.5224,-5.5221,-5.5196,-5.5202,-5.5285,-5.5275,-5.5222,-5.5216,-5.5225,-5.5272,-5.5297,-5.5304,-5.5435,-5.5308,-5.5314,-5.5318,-5.5321,-5.568,-5.5685,0,0,0,0,0,0,-5.5118,-5.5128,-5.5279,-5.5283,-5.5158,-5.5204,-5.521,-5.5251,-5.5274,-5.5273,-5.5229,-5.522,-5.5287,-5.5296,-5.5305,-5.5472,-5.5315,-5.5322,-5.5326,-5.5675,-5.5681,-5.5687,0,0,0,0,0,0,-5.5114,-5.5132,-5.5276,-5.5204,-5.522,-5.5212,-5.5259,-5.5255,-5.528,-5.5279,-5.5276,-5.5256,-5.5283,-5.5296,-5.5398,-5.5473,-5.5325,-5.5331,-5.5669,-5.5677,-5.5684,-5.5808,0,0,0,0,0,0,-5.5108,-5.5131,-5.5187,-5.5206,-5.5224,-5.537,-5.5264,-5.526,-5.5293,-5.5282,-5.5304,-5.5303,-5.528,-5.5388,-5.5405,-5.548,-5.5337,-5.5662,-5.5672,-5.5682,-5.5797,-5.5819,-5.5838,0,0,0,0,0,-5.5101,-5.5219,-5.519,-5.5209,-5.5294,-5.5375,-5.5385,-5.5358,-5.5299,-5.5354,-5.5353,-5.5302,-5.5462,-5.54,-5.5418,-5.5496,-5.5657,-5.5669,-5.5681,-5.5788,-5.5815,-5.5838,0,0,0,0,0,0,-5.5207,-5.522,-5.5189,-5.5317,-5.5346,-5.5359,-5.5427,-5.5388,-5.5433,-5.5421,-5.5384,-5.539,-5.55,-5.5508,-5.5438,-5.5634,-5.5549,-5.5566,-5.5625,-5.565,-5.567,-5.5666,-5.5343,0,0,0,0,0,-5.5246,-5.5312,-5.5319,-5.5431,-5.5447,-5.5435,-5.5469,-5.5446,-5.5474,-5.5485,-5.5492,-5.5519,-5.5575,-5.5613,-5.5665,-5.5798,-5.58,-5.586,-5.5881,-5.5898,-5.5912,-5.5981,-5.6007,-5.5727,-5.5726,-5.5726,0,0,-5.5326,-5.5341,-5.5385,-5.5453,-5.5473,-5.554,-5.5446,-5.5522,-5.5571,-5.5496,-5.5594,-5.5599,-5.5627,-5.5746,-5.5798,-5.5756,-5.599,-5.5913,-5.5926,-5.5932,-5.5996,-5.6023,-5.6046,-5.5735,-5.5733,-5.5732,0,0,-5.5506,-5.5525,-5.562,-5.5641,-5.5673,-5.5663,-5.5686,-5.5705,-5.5706,-5.5804,-5.5749,-5.5806,-5.5904,-5.5926,-5.595,-5.6137,-5.6091,-5.6154,-5.6261,-5.6329,-5.6351,-5.637,-5.6435,-5.646,-5.6168,-5.6169,-5.6169,0,-5.5601,-5.5703,-5.5673,-5.5753,-5.5783,-5.5719,-5.5814,-5.5835,-5.5882,-5.5903,-5.5855,-5.5976,-5.5991,-5.6112,-5.6158,-5.618,-5.6203,-5.6151,-5.635,-5.6369,-5.6387,-5.6449,-5.6474,-5.6176,-5.6175,-5.6175,-5.6174,0,-5.5817,-5.5888,-5.596,-5.6008,-5.6046,-5.6133,-5.6114,-5.6156,-5.6129,-5.6124,-5.6223,-5.6238,-5.6291,-5.6318,-5.6293,-5.6436,-5.6409,-5.6357,-5.6271,-5.6422,-5.6479,-5.6503,-5.6187,-5.6184,-5.6182,-5.618,0,0,-5.6067,-5.6096,-5.6123,-5.6143,-5.6172,-5.6225,-5.6308,-5.6361,-5.6397,-5.643,-5.6497,-5.6581,-5.6533,-5.656,-5.6536,-5.6595,-5.674,-5.6535,-5.6535,-5.6572,-5.6897,-5.6936,-5.6964,-5.6711,-5.6715,-5.6718,-5.6895,0,-5.6245,-5.639,-5.6365,-5.6504,-5.6568,-5.6508,-5.6579,-5.6604,-5.6601,-5.6653,-5.6649,-5.6709,-5.6641,-5.6657,-5.6713,-5.6711,-5.6805,-5.6698,-5.6771,-5.6774,-5.6765,-5.6994,-5.7036,-5.7201,-5.6917,-5.6921,-5.6923,0,-5.6473,-5.6516,-5.6663,-5.668,-5.6706,-5.6771,-5.6817,-5.6868,-5.6894,-5.6887,-5.6918,-5.6882,-5.6961,-5.6875,-5.6984,-5.6911,-5.6939,-5.6943,-5.6948,-5.6953,-5.6858,-5.7005,-5.7254,-5.7278,-5.6959,-5.6956,-5.6953,0,-5.6639,-5.6733,-5.6833,-5.6852,-5.6875,-5.6922,-5.6933,-5.6954,-5.6987,-5.7026,-5.7047,-5.7095,-5.7121,-5.7158,-5.7135,-5.7074,-5.7247,-5.7159,-5.7242,-5.7243,-5.7281,-5.7278,-5.7537,-5.73,-5.73,-5.73,-5.7299,0,-5.6841,-5.6932,-5.6907,-5.6968,-5.7068,-5.7037,-5.7136,-5.714,-5.7159,-5.7218,-5.7169,-5.7225,-5.7192,-5.7245,-5.7227,-5.7319,-5.7331,-5.7327,-5.7321,-5.7331,-5.7331,-5.7348,-5.7336,-5.7306,-5.7305,-5.7303,-5.7302,0,-5.7043,-5.703,-5.7134,-5.7148,-5.7153,-5.7226,-5.7237,-5.7292,-5.7286,-5.7361,-5.7377,-5.7366,-5.7425,-5.7406,-5.747,-5.7458,-5.7574,-5.7554,-5.7566,-5.7561,-5.7645,-5.7637,-5.7922,-5.7957,-5.77,-5.7702,-5.7704,0,-5.7172,-5.7242,-5.7263,-5.7299,-5.7315,-5.7375,-5.7408,-5.738,-5.7416,-5.745,-5.7501,-5.7557,-5.7599,-5.7697,-5.7694,-5.7742,-5.7721,-5.7818,-5.7728,-5.7736,-5.7722,-5.7718,-5.7723,-5.7836,-5.7839,-5.7841,-5.7843,0,-5.7403,-5.7393,-5.7444,-5.7493,-5.7534,-5.7571,-5.7603,-5.7635,-5.7608,-5.7651,-5.7712,-5.7746,-5.7811,-5.7866,-5.791,-5.7919,-5.7877,-5.7872,-5.7893,-5.7904,-5.7908,-5.7906,-5.7614,-5.7865,-5.7863,-5.7861,-5.786,-5.7859,-5.7572,-5.763,-5.7654,-5.7711,-5.7732,-5.7763,-5.7816,-5.7816,-5.7867,-5.7919,-5.7898,-5.7968,-5.7989,-5.8043,-5.8059,-5.8111,-5.8074,-5.8106,-5.8113,-5.8121,-5.8132,-5.79,-5.8119,-5.8119,-5.8118,-5.8117,-5.8117,0,-5.7798,-5.7811,-5.7864,-5.7911,-5.7956,-5.7913,-5.7946,-5.7986,-5.8048,-5.8073,-5.8116,-5.8185,-5.8238,-5.8239,-5.8287,-5.8329,-5.8311,-5.8343,-5.8339,-5.8341,-5.8163,-5.8139,-5.8357,-5.8357,-5.8357,-5.8357,-5.8357,-5.8356,-5.7922,-5.8017,-5.801,-5.8114,-5.8125,-5.8194,-5.8216,-5.8243,-5.8263,-5.8342,-5.8387,-5.8387,-5.8401,-5.845,-5.8496,-5.8494,-5.8514,-5.8554,-5.8545,-5.8378,-5.8354,-5.8331,-5.8309,-5.8558,-5.8559,-5.8718,-5.872,-5.8721]}]]